TimeCST,TemperatureF,Dew PointF,Humidity,Sea Level PressureIn,VisibilityMPH,Wind Direction,Wind SpeedMPH,Gust SpeedMPH,PrecipitationIn,Events,Conditions,WindDirDegrees,DateUTC
12:15 AM,44.6,42.8,93,30.11,10.0,Calm,Calm,-,N/A,,Scattered Clouds,0,2013-02-12 06:15:00
12:35 AM,46.4,42.8,87,30.13,10.0,West,3.5,-,N/A,,Overcast,280,2013-02-12 06:35:00
12:55 AM,44.6,42.8,93,30.17,10.0,West,6.9,-,N/A,,Overcast,260,2013-02-12 06:55:00
1:15 AM,46.4,42.8,87,30.14,10.0,Calm,Calm,-,N/A,,Scattered Clouds,0,2013-02-12 07:15:00
1:35 AM,44.6,42.8,93,30.13,10.0,Calm,Calm,-,N/A,,Mostly Cloudy,0,2013-02-12 07:35:00
1:55 AM,44.6,42.8,93,30.13,10.0,SSW,3.5,-,N/A,,Overcast,200,2013-02-12 07:55:00
2:15 AM,46.4,42.8,87,30.13,10.0,Calm,Calm,-,N/A,,Overcast,0,2013-02-12 08:15:00
2:35 AM,44.6,42.8,93,30.12,10.0,Calm,Calm,-,N/A,,Overcast,0,2013-02-12 08:35:00
2:55 AM,44.6,42.8,93,30.12,10.0,Calm,Calm,-,N/A,,Overcast,0,2013-02-12 08:55:00
3:15 AM,44.6,42.8,93,30.13,10.0,West,4.6,-,N/A,,Scattered Clouds,270,2013-02-12 09:15:00
3:35 AM,44.6,42.8,93,30.13,10.0,NW,3.5,-,N/A,,Partly Cloudy,320,2013-02-12 09:35:00
3:55 AM,44.6,42.8,93,30.14,10.0,NNW,3.5,-,N/A,,Clear,340,2013-02-12 09:55:00
4:15 AM,44.6,41.0,87,30.13,10.0,Calm,Calm,-,N/A,,Partly Cloudy,0,2013-02-12 10:15:00
4:35 AM,44.6,41.0,87,30.13,10.0,Calm,Calm,-,N/A,,Mostly Cloudy,0,2013-02-12 10:35:00
4:55 AM,44.6,41.0,87,30.14,10.0,Calm,Calm,-,N/A,,Mostly Cloudy,0,2013-02-12 10:55:00
5:15 AM,44.6,41.0,87,30.15,10.0,Calm,Calm,-,N/A,,Overcast,0,2013-02-12 11:15:00
5:35 AM,44.6,41.0,87,30.16,10.0,Calm,Calm,-,N/A,,Mostly Cloudy,0,2013-02-12 11:35:00
5:55 AM,44.6,41.0,87,30.13,10.0,Calm,Calm,-,N/A,,Partly Cloudy,0,2013-02-12 11:55:00
6:15 AM,42.8,39.2,87,30.13,10.0,Calm,Calm,-,N/A,,Clear,0,2013-02-12 12:15:00
6:35 AM,42.8,37.4,81,30.12,10.0,Calm,Calm,-,N/A,,Clear,0,2013-02-12 12:35:00
6:55 AM,41.0,37.4,87,30.13,10.0,Calm,Calm,-,N/A,,Scattered Clouds,0,2013-02-12 12:55:00
7:15 AM,41.0,37.4,87,30.12,10.0,Calm,Calm,-,N/A,,Overcast,0,2013-02-12 13:15:00
7:35 AM,44.6,39.2,81,30.11,10.0,ENE,4.6,-,N/A,,Mostly Cloudy,60,2013-02-12 13:35:00
7:55 AM,46.4,37.4,71,30.12,10.0,Calm,Calm,-,N/A,,Mostly Cloudy,0,2013-02-12 13:55:00
8:15 AM,48.2,37.4,66,30.10,10.0,NE,5.8,-,N/A,,Scattered Clouds,40,2013-02-12 14:15:00
8:35 AM,48.2,37.4,66,30.10,10.0,ENE,10.4,-,N/A,,Clear,60,2013-02-12 14:35:00
8:55 AM,50.0,33.8,54,30.11,10.0,ENE,11.5,-,N/A,,Clear,70,2013-02-12 14:55:00
9:15 AM,50.0,35.6,58,30.10,10.0,NE,13.8,19.6,N/A,,Clear,50,2013-02-12 15:15:00
9:35 AM,48.2,33.8,58,30.10,10.0,ENE,12.7,19.6,N/A,,Clear,70,2013-02-12 15:35:00
9:55 AM,48.2,33.8,58,30.10,10.0,East,9.2,-,N/A,,Clear,90,2013-02-12 15:55:00
10:15 AM,48.2,33.8,58,30.11,10.0,ENE,8.1,-,N/A,,Clear,70,2013-02-12 16:15:00
10:35 AM,48.2,33.8,58,30.09,8.0,East,10.4,-,N/A,,Clear,80,2013-02-12 16:35:00
10:55 AM,48.2,33.8,58,30.06,10.0,East,9.2,-,N/A,,Clear,80,2013-02-12 16:55:00
11:15 AM,48.2,33.8,58,30.08,10.0,ENE,8.1,-,N/A,,Clear,60,2013-02-12 17:15:00
11:35 AM,48.2,33.8,58,30.07,10.0,ENE,5.8,-,N/A,,Clear,70,2013-02-12 17:35:00
11:55 AM,48.2,33.8,58,30.07,10.0,ENE,3.5,-,N/A,,Scattered Clouds,60,2013-02-12 17:55:00
12:15 PM,48.2,33.8,58,30.06,10.0,East,5.8,-,N/A,,Mostly Cloudy,100,2013-02-12 18:15:00
12:35 PM,50.0,33.8,54,30.06,10.0,East,5.8,-,N/A,,Overcast,90,2013-02-12 18:35:00
12:55 PM,48.2,35.6,62,30.06,10.0,Calm,Calm,-,N/A,,Overcast,0,2013-02-12 18:55:00
1:15 PM,46.4,39.2,76,30.03,7.0,East,3.5,-,0.02,,Overcast,90,2013-02-12 19:15:00
1:35 PM,46.4,41.0,81,30.01,10.0,ENE,4.6,-,0.03,,Mostly Cloudy,60,2013-02-12 19:35:00
1:55 PM,46.4,41.0,81,30.01,10.0,Calm,Calm,-,0.05,,Scattered Clouds,0,2013-02-12 19:55:00
2:35 PM,46.4,42.8,87,29.98,10.0,NE,9.2,-,0.02,,Scattered Clouds,50,2013-02-12 20:35:00
2:55 PM,46.4,41.0,81,29.94,10.0,NNE,11.5,-,0.02,,Mostly Cloudy,20,2013-02-12 20:55:00
3:15 PM,44.6,39.2,81,29.92,10.0,ENE,12.7,-,N/A,,Mostly Cloudy,70,2013-02-12 21:15:00
3:35 PM,44.6,41.0,87,29.94,10.0,NNE,3.5,-,0.04,,Scattered Clouds,30,2013-02-12 21:35:00
3:55 PM,44.6,42.8,93,29.97,10.0,Calm,Calm,-,0.05,,Clear,0,2013-02-12 21:55:00
4:15 PM,44.6,39.2,81,29.98,10.0,East,3.5,-,0.02,,Clear,90,2013-02-12 22:15:00
4:35 PM,44.6,41.0,87,29.91,9.0,NE,11.5,-,0.04,,Mostly Cloudy,40,2013-02-12 22:35:00
4:55 PM,44.6,39.2,81,29.92,10.0,NNE,5.8,-,0.06,,Overcast,20,2013-02-12 22:55:00
5:15 PM,44.6,39.2,81,29.94,10.0,NE,6.9,-,N/A,,Overcast,50,2013-02-12 23:15:00
5:35 PM,44.6,41.0,87,29.92,10.0,East,8.1,-,0.01,,Overcast,80,2013-02-12 23:35:00
5:55 PM,44.6,39.2,81,29.91,10.0,East,8.1,-,0.01,,Overcast,90,2013-02-12 23:55:00
6:15 PM,44.6,39.2,81,29.91,8.0,East,8.1,-,0.02,,Overcast,80,2013-02-13 00:15:00
6:35 PM,44.6,41.0,87,29.94,8.0,ENE,5.8,-,0.06,,Overcast,60,2013-02-13 00:35:00
6:55 PM,44.6,41.0,87,29.93,8.0,ENE,4.6,-,0.09,,Overcast,70,2013-02-13 00:55:00
7:15 PM,44.6,41.0,87,29.92,10.0,East,8.1,-,0.01,,Overcast,90,2013-02-13 01:15:00
7:35 PM,44.6,41.0,87,29.88,10.0,ENE,12.7,18.4,0.01,,Mostly Cloudy,60,2013-02-13 01:35:00
7:55 PM,44.6,39.2,81,29.88,10.0,East,10.4,-,0.01,,Mostly Cloudy,80,2013-02-13 01:55:00
8:15 PM,44.6,39.2,81,29.88,10.0,ENE,8.1,-,N/A,,Overcast,70,2013-02-13 02:15:00
8:35 PM,44.6,39.2,81,29.88,10.0,East,9.2,-,N/A,,Overcast,80,2013-02-13 02:35:00
8:55 PM,44.6,41.0,87,29.90,10.0,NNE,8.1,-,N/A,,Overcast,30,2013-02-13 02:55:00
9:15 PM,44.6,39.2,81,29.89,10.0,ENE,3.5,-,N/A,,Overcast,70,2013-02-13 03:15:00
9:35 PM,44.6,39.2,81,29.86,10.0,ENE,9.2,-,N/A,,Overcast,70,2013-02-13 03:35:00
9:55 PM,44.6,39.2,81,29.83,10.0,East,10.4,-,N/A,,Overcast,90,2013-02-13 03:55:00
10:15 PM,44.6,41.0,87,29.83,10.0,ENE,9.2,-,N/A,,Overcast,70,2013-02-13 04:15:00
10:35 PM,44.6,41.0,87,29.83,10.0,East,8.1,-,N/A,,Overcast,80,2013-02-13 04:35:00
10:55 PM,44.6,41.0,87,29.81,10.0,East,8.1,-,N/A,,Overcast,80,2013-02-13 04:55:00
11:15 PM,44.6,41.0,87,29.81,10.0,East,5.8,-,N/A,,Overcast,90,2013-02-13 05:15:00
11:35 PM,44.6,41.0,87,29.81,10.0,ENE,8.1,-,N/A,,Overcast,70,2013-02-13 05:35:00
11:55 PM,44.6,41.0,87,29.80,10.0,ENE,9.2,-,N/A,,Overcast,70,2013-02-13 05:55:00